Location: Newark
(33.6333°S, 78.8500°W)
Time: 13:19:44
(UTC+00:00)

Tiros 1 despin weight - Pass Details

Date: 22 September 2019
Orbit: 594 x 643 km, 48.2° (Epoch: 14 October)

Event Time Altitude Azimuth Distance (km) Brightness Sun altitude
Rises 12:19:43 0° 244° (WSW) 2,959 ? 14.6°
Reaches altitude 10° 12:22:23 10° 257° (WSW) 2,046 ? 15.2°
Maximum altitude 12:26:13 25° 312° (NW) 1,314 ? 16.0°
Drops below altitude 10° 12:30:00 10° 6° (N) 2,028 ? 16.7°
Sets 12:32:39 0° 19° (NNE) 2,927 ? 17.3°
